Location: Krasnoyarskiy Pitomnik
(51.1333°N, 71.6167°E)
Time: 10:14:02
(UTC+00:00)

Altair - Pass Details

Date: 18 April 2024
Orbit: 1501 x 1682 km, 47.2° (Epoch: 17 May)

Event Time Altitude Azimuth Distance (km) Brightness Sun altitude
Rises 12:21:12 0° 178° (S) 4,915 10.2 16.7°
Reaches altitude 10° 12:26:11 10° 158° (SSE) 3,915 9.5 15.9°
Maximum altitude 12:31:18 15° 126° (SE) 3,477 9.0 15.1°
Drops below altitude 10° 12:36:21 10° 95° (E) 3,868 9.0 14.3°
Sets 12:41:10 0° 75° (ENE) 4,823 9.5 13.6°
